[Date Prev][Date Next][Thread Prev][Thread Next] - [Date Index][Thread Index][Author Index]
2 Line ISS Keps 8-1
- Subject: [sarex] 2 Line ISS Keps 8-1
- From: "Dave Larsen PhD" <doc@xxxxxxxxxxx>
- Date: Mon, 1 Aug 2005 05:05:08 -0700
ISS
1 25544U 98067A 05213.43666493 .00014149 00000-0 11172-3 0 470
2 25544 051.6457 029.1951 0002042 189.0166 256.4713 15.71695827382806
----
Via the sarex mailing list at AMSAT.ORG courtesy of AMSAT-NA.
To unsubscribe, send "unsubscribe sarex" to Majordomo@amsat.org
AMSAT Home